Terminal Aerodrome Forecast
Issued by NWS

Home | Current Version | Previous Version | Text Only | Print | Product List | Glossary On
Versions: 1 2 3 4 5 6 7 8 9 10 11 12 13 14 15 16 17 18 19
000
FTUS43 KGLD 191726
TAFMCK
TAF
KMCK 191726Z 1918/2018 21004KT 1/4SM FZFG OVC003
     FM192000 18004KT 3/4SM BR BKN003
     FM192200 15005KT P6SM SCT010
     FM200300 18004KT 4SM BR BKN003
     FM201000 VRB03KT 1 1/2SM BR BKN003
     FM201300 VRB03KT 2SM BR BKN003=

USA.gov is the U.S. government's official web portal to all federal, state and local government web resources and services.